When you browse on this site, cookies collect data to enhance your experience and personalize the content and advertising you see.
Visit our Privacy Policy to learn more. By continuing to use the site, you agree to this use of cookies and data.
  • In Latvia
  • List of Countries
  • For 7 days
  • Water Temperature
  • Satellite Maps
  • Weather Map
  • Weather Widgets
  • user-avatar
    Login

    Hourly Weather Kitzbuhel

    Today, 18 July, Thursday

    Time Temperature Precipitation Wind Pressure Humidity
    00:00 +12°C° 0 mm 1 mps 675 mmHg 94%
    01:00 +12°C° 0 mm 1 mps 675 mmHg 94%
    02:00 +12°C° 0 mm 1 mps 675 mmHg 93%
    03:00 +12°C° 0 mm 1 mps 675 mmHg 93%
    04:00 +11°C° 0 mm 1 mps 675 mmHg 92%
    05:00 +13°C° 0 mm 1 mps 675 mmHg 90%
    06:00 +14°C° 0 mm 1 mps 675 mmHg 88%
    07:00 +15°C° 0 mm 0 mps 676 mmHg 86%
    08:00 +18°C° 0.3 mm 1 mps 676 mmHg 80%
    09:00 +19°C° 0.3 mm 1 mps 676 mmHg 75%
    10:00 +21°C° 0.3 mm 1 mps 677 mmHg 69%
    11:00 +22°C° 0.2 mm 1 mps 677 mmHg 63%
    12:00 +22°C° 0.2 mm 1 mps 677 mmHg 56%
    13:00 +23°C° 0.2 mm 2 mps 677 mmHg 50%
    14:00 +23°C° 0.2 mm 2 mps 677 mmHg 52%
    15:00 +23°C° 0.2 mm 2 mps 677 mmHg 55%
    16:00 +21°C° 0.2 mm 2 mps 677 mmHg 57%
    17:00 +21°C° 0.4 mm 1 mps 677 mmHg 67%
    18:00 +19°C° 0.4 mm 1 mps 677 mmHg 77%
    19:00 +16°C° 0.4 mm 0 mps 676 mmHg 87%
    20:00 +16°C° 0 mm 1 mps 677 mmHg 89%
    21:00 +14°C° 0 mm 1 mps 677 mmHg 90%
    22:00 +13°C° 0 mm 1 mps 677 mmHg 91%
    23:00 +12°C° 0 mm 1 mps 677 mmHg 91%

    Tomorrow, 19 July, Friday

    Time Temperature Precipitation Wind Pressure Humidity
    00:00 +12°C° 0 mm 1 mps 677 mmHg 91%
    01:00 +12°C° 0 mm 1 mps 677 mmHg 91%
    02:00 +12°C° 0 mm 1 mps 677 mmHg 90%
    03:00 +12°C° 0 mm 1 mps 677 mmHg 89%
    04:00 +12°C° 0 mm 1 mps 677 mmHg 89%
    05:00 +13°C° 0 mm 1 mps 677 mmHg 86%
    06:00 +15°C° 0 mm 1 mps 678 mmHg 83%
    07:00 +16°C° 0 mm 1 mps 678 mmHg 80%
    08:00 +20°C° 0 mm 1 mps 679 mmHg 69%
    09:00 +22°C° 0 mm 1 mps 679 mmHg 59%
    10:00 +25°C° 0 mm 1 mps 680 mmHg 48%
    11:00 +25°C° 0 mm 1 mps 680 mmHg 46%
    12:00 +26°C° 0 mm 1 mps 680 mmHg 44%
    13:00 +26°C° 0 mm 1 mps 680 mmHg 42%
    14:00 +25°C° 0.2 mm 1 mps 679 mmHg 49%
    15:00 +25°C° 0.2 mm 2 mps 679 mmHg 55%
    16:00 +24°C° 0.2 mm 2 mps 679 mmHg 61%
    17:00 +22°C° 0.5 mm 1 mps 679 mmHg 71%
    18:00 +21°C° 0.5 mm 1 mps 679 mmHg 81%
    19:00 +18°C° 0.5 mm 0 mps 679 mmHg 91%
    20:00 +16°C° 0.4 mm 0 mps 679 mmHg 91%
    21:00 +16°C° 0.4 mm 1 mps 679 mmHg 92%
    22:00 +15°C° 0.4 mm 1 mps 679 mmHg 93%
    23:00 +14°C° 0 mm 1 mps 679 mmHg 93%

    Day after tomorrow, 20 July, Saturday

    Time Temperature Precipitation Wind Pressure Humidity
    00:00 +14°C° 0 mm 1 mps 679 mmHg 93%
    01:00 +14°C° 0 mm 1 mps 679 mmHg 92%
    02:00 +14°C° 0 mm 1 mps 679 mmHg 92%
    03:00 +14°C° 0 mm 1 mps 679 mmHg 92%
    04:00 +14°C° 0 mm 1 mps 678 mmHg 91%
    05:00 +15°C° 0 mm 1 mps 679 mmHg 89%
    06:00 +18°C° 0 mm 1 mps 679 mmHg 87%
    07:00 +19°C° 0 mm 1 mps 679 mmHg 84%
    08:00 +20°C° 0 mm 0 mps 680 mmHg 73%
    09:00 +22°C° 0 mm 0 mps 681 mmHg 62%
    10:00 +25°C° 0 mm 0 mps 681 mmHg 51%
    11:00 +27°C° 0.3 mm 1 mps 681 mmHg 50%
    12:00 +28°C° 0.3 mm 1 mps 681 mmHg 50%
    13:00 +28°C° 0.3 mm 1 mps 681 mmHg 49%
    14:00 +27°C° 0.6 mm 1 mps 681 mmHg 57%
    15:00 +25°C° 0.6 mm 1 mps 680 mmHg 66%
    16:00 +24°C° 0.6 mm 1 mps 680 mmHg 75%
    17:00 +23°C° 0.9 mm 1 mps 680 mmHg 78%
    18:00 +22°C° 0.9 mm 1 mps 680 mmHg 82%
    19:00 +19°C° 0.9 mm 0 mps 681 mmHg 86%
    20:00 +20°C° 0.2 mm 1 mps 681 mmHg 87%
    21:00 +18°C° 0.2 mm 1 mps 681 mmHg 87%
    22:00 +16°C° 0.2 mm 2 mps 681 mmHg 88%
    23:00 +16°C° 0 mm 2 mps 681 mmHg 87%

    21 July, Sunday

    Time Temperature Precipitation Wind Pressure Humidity
    00:00 +15°C° 0 mm 2 mps 681 mmHg 86%
    01:00 +15°C° 0 mm 2 mps 681 mmHg 85%
    02:00 +15°C° 0 mm 2 mps 681 mmHg 83%
    03:00 +15°C° 0 mm 1 mps 681 mmHg 81%
    04:00 +15°C° 0 mm 1 mps 681 mmHg 79%
    05:00 +18°C° 0 mm 1 mps 681 mmHg 75%
    06:00 +19°C° 0 mm 1 mps 682 mmHg 71%
    07:00 +21°C° 0 mm 1 mps 682 mmHg 66%
    08:00 +23°C° 0 mm 1 mps 683 mmHg 59%
    09:00 +25°C° 0 mm 1 mps 683 mmHg 51%
    10:00 +27°C° 0 mm 1 mps 684 mmHg 43%
    11:00 +28°C° 0.1 mm 2 mps 684 mmHg 45%
    12:00 +28°C° 0.1 mm 2 mps 684 mmHg 47%
    13:00 +28°C° 0.1 mm 2 mps 684 mmHg 48%
    14:00 +27°C° 0.7 mm 2 mps 684 mmHg 60%
    15:00 +25°C° 0.7 mm 2 mps 683 mmHg 73%
    16:00 +24°C° 0.7 mm 2 mps 683 mmHg 85%
    17:00 +23°C° 0.9 mm 1 mps 683 mmHg 87%
    18:00 +23°C° 0.9 mm 1 mps 683 mmHg 89%
    19:00 +20°C° 0.9 mm 0 mps 683 mmHg 91%
    20:00 +18°C° 0.6 mm 0 mps 683 mmHg 92%
    21:00 +17°C° 0.6 mm 0 mps 683 mmHg 93%
    22:00 +18°C° 0.6 mm 1 mps 683 mmHg 94%
    23:00 +16°C° 0 mm 1 mps 683 mmHg 94%

    22 July, Monday

    Time Temperature Precipitation Wind Pressure Humidity
    00:00 +16°C° 0 mm 1 mps 683 mmHg 93%
    01:00 +15°C° 0 mm 1 mps 683 mmHg 93%
    02:00 +15°C° 0 mm 1 mps 683 mmHg 93%
    03:00 +15°C° 0 mm 1 mps 683 mmHg 93%
    04:00 +15°C° 0 mm 1 mps 683 mmHg 92%
    05:00 +16°C° 0 mm 1 mps 683 mmHg 90%
    06:00 +17°C° 0 mm 0 mps 683 mmHg 88%
    07:00 +18°C° 0 mm 0 mps 684 mmHg 86%
    08:00 +21°C° 0 mm 0 mps 684 mmHg 75%
    09:00 +25°C° 0 mm 1 mps 685 mmHg 63%
    10:00 +27°C° 0 mm 1 mps 685 mmHg 52%
    11:00 +28°C° 0 mm 1 mps 685 mmHg 49%
    12:00 +29°C° 0 mm 1 mps 685 mmHg 47%
    13:00 +29°C° 0 mm 2 mps 684 mmHg 44%
    14:00 +29°C° 0.1 mm 2 mps 684 mmHg 48%
    15:00 +28°C° 0.1 mm 2 mps 684 mmHg 51%
    16:00 +28°C° 0.1 mm 2 mps 684 mmHg 54%
    17:00 +26°C° 0.6 mm 2 mps 683 mmHg 66%
    18:00 +24°C° 0.6 mm 1 mps 683 mmHg 78%
    19:00 +22°C° 0.6 mm 1 mps 683 mmHg 90%
    20:00 +21°C° 0.1 mm 1 mps 683 mmHg 90%
    21:00 +20°C° 0.1 mm 1 mps 682 mmHg 91%
    22:00 +18°C° 0.1 mm 1 mps 682 mmHg 92%
    23:00 +18°C° 0 mm 1 mps 682 mmHg 91%

    23 July, Tuesday

    Time Temperature Precipitation Wind Pressure Humidity
    00:00 +18°C° 0 mm 1 mps 682 mmHg 91%
    01:00 +16°C° 0 mm 1 mps 682 mmHg 91%
    02:00 +16°C° 0 mm 1 mps 681 mmHg 91%
    03:00 +16°C° 0 mm 1 mps 681 mmHg 91%
    04:00 +16°C° 0 mm 1 mps 681 mmHg 91%
    05:00 +18°C° 0 mm 1 mps 681 mmHg 89%
    06:00 +17°C° 0 mm 0 mps 682 mmHg 88%
    07:00 +19°C° 0 mm 0 mps 682 mmHg 86%
    08:00 +21°C° 0 mm 0 mps 682 mmHg 75%
    09:00 +25°C° 0 mm 1 mps 682 mmHg 65%
    10:00 +28°C° 0 mm 1 mps 683 mmHg 55%
    11:00 +28°C° 0 mm 1 mps 683 mmHg 50%
    12:00 +29°C° 0 mm 2 mps 682 mmHg 45%
    13:00 +30°C° 0 mm 2 mps 682 mmHg 40%
    14:00 +29°C° 0 mm 2 mps 682 mmHg 42%
    15:00 +29°C° 0 mm 2 mps 682 mmHg 44%
    16:00 +29°C° 0 mm 2 mps 681 mmHg 46%
    17:00 +27°C° 0 mm 2 mps 681 mmHg 57%
    18:00 +25°C° 0 mm 1 mps 680 mmHg 68%
    19:00 +23°C° 0 mm 1 mps 680 mmHg 80%
    20:00 +21°C° 0 mm 1 mps 680 mmHg 84%
    21:00 +20°C° 0 mm 1 mps 680 mmHg 88%
    22:00 +18°C° 0 mm 1 mps 680 mmHg 92%
    23:00 +18°C° 0 mm 1 mps 680 mmHg 92%
    Show more